FW8987 Weather Reports


time (UTC)temp
F
wind
direction
speed
knots
gust
knots
rain 1hr
in
rain 24hr
in
rain mn
in
humidity
%
barometer
mb
20260510180032 53 237 2.6 3.5 0.00 0.00 0.00 55 1005.2
20260510175027 54 252 3.5 5.2 0.00 0.00 0.00 54 1005.2
20260510174043 54 240 0.9 2.6 0.00 0.00 0.00 53 1005.2
20260510173018 54 201 0.9 1.7 0.00 0.00 0.00 52 1005.3
20260510172034 54 206 1.7 7.0 0.00 0.00 0.00 53 1005.5
20260510171029 55 204 1.7 3.5 0.00 0.00 0.00 51 1005.6
20260510170024 55 205 1.7 2.6 0.00 0.00 0.00 50 1005.6
20260510165019 55 164 1.7 7.0 0.00 0.00 0.00 48 1005.8
20260510164035 55 235 1.7 3.5 0.00 0.00 0.00 48 1005.8
20260510163030 55 233 3.5 7.8 0.00 0.00 0.00 47 1006.0
20260510162045 56 244 2.6 8.7 0.00 0.00 0.00 48 1006.1
20260510161020 56 241 1.7 3.5 0.00 0.00 0.00 47 1006.0
20260510160016 56 252 2.6 5.2 0.00 0.00 0.00 47 1006.2
20260510155032 56 268 3.5 7.0 0.00 0.00 0.00 47 1006.1
20260510154032 58 233 3.5 7.8 0.00 0.00 0.00 41 1006.0
20260510153023 58 239 3.5 8.7 0.00 0.00 0.00 40 1006.2
20260510152018 59 232 3.5 11.3 0.00 0.00 0.00 40 1006.3
20260510151114 58 216 1.7 6.1 0.00 0.00 0.00 40 1006.4
20260510150029 58 191 1.7 3.5 0.00 0.00 0.00 39 1006.6
20260510145044 59 206 3.5 7.0 0.00 0.00 0.00 38 1006.8
20260510144019 59 234 2.6 6.1 0.00 0.00 0.00 37 1006.7
20260510143034 59 215 3.5 9.6 0.00 0.00 0.00 37 1007.1
20260510142035 60 218 3.5 7.8 0.00 0.00 0.00 37 1007.1
20260510141025 59 216 2.6 7.0 0.00 0.00 0.00 37 1007.2
20260510140020 60 191 2.6 5.2 0.00 0.00 0.00 36 1007.4
20260510135015 59 207 4.3 8.7 0.00 0.00 0.00 37 1007.6
20260510134030 59 195 2.6 6.1 0.00 0.00 0.00 37 1007.7
20260510133026 59 230 4.3 11.3 0.00 0.00 0.00 38 1007.7
20260510132021 59 189 2.6 5.2 0.00 0.00 0.00 39 1008.0
20260510131017 59 223 3.5 7.0 0.00 0.00 0.00 40 1008.1
20260510130053 58 210 3.5 7.0 0.00 0.00 0.00 40 1008.2
20260510125027 58 240 3.5 7.0 0.00 0.00 0.00 41 1008.4
20260510124022 58 236 5.2 8.7 0.00 0.00 0.00 41 1008.5
20260510123018 57 245 5.2 12.2 0.00 0.00 0.00 41 1008.6
20260510122033 57 250 6.1 13.0 0.00 0.00 0.00 40 1008.7
20260510121029 58 230 5.2 11.3 0.00 0.00 0.00 40 1008.9
20260510120024 59 239 5.2 9.6 0.00 0.00 0.00 44 1009.0
20260510115039 58 232 3.5 8.7 0.00 0.00 0.00 46 1009.1
20260510114035 58 223 3.5 5.2 0.00 0.00 0.00 45 1009.1
20260510113030 58 221 4.3 11.3 0.00 0.00 0.00 45 1009.4
20260510112026 58 235 4.3 12.2 0.00 0.00 0.00 45 1009.4
20260510111020 58 197 2.6 5.2 0.00 0.00 0.00 46 1009.7
20260510110036 58 203 3.5 6.1 0.00 0.00 0.00 46 1009.8
20260510105031 58 200 2.6 6.1 0.00 0.00 0.00 47 1009.8
20260510104026 58 201 3.5 8.7 0.00 0.00 0.00 48 1010.0
20260510103021 58 196 2.6 5.2 0.00 0.00 0.00 51 1010.2
20260510102017 58 213 2.6 6.1 0.00 0.00 0.00 51 1010.4
20260510101032 59 200 1.7 5.2 0.00 0.00 0.00 50 1010.5
20260510100048 58 200 2.6 7.0 0.00 0.00 0.00 50 1010.8
20260510095022 59 179 2.6 5.2 0.00 0.00 0.00 49 1010.8
20260510094018 58 209 3.5 7.0 0.00 0.00 0.00 50 1011.0
20260510093033 58 196 1.7 3.5 0.00 0.00 0.00 50 1010.9
20260510092028 58 175 3.5 11.3 0.00 0.00 0.00 49 1011.2
20260510091025 57 157 2.6 6.1 0.00 0.00 0.00 50 1011.2
20260510090019 56 184 2.6 7.0 0.00 0.00 0.00 51 1011.4
20260510085034 57 187 3.5 13.0 0.00 0.00 0.00 49 1011.5
20260510084031 59 209 4.3 13.0 0.00 0.00 0.00 47 1011.6
20260510083026 57 147 1.7 3.5 0.00 0.00 0.00 50 1011.7
20260510082021 56 168 1.7 6.1 0.00 0.00 0.00 50 1011.9
20260510081016 56 150 2.6 5.2 0.00 0.00 0.00 51 1012.1
20260510080032 57 173 1.7 3.5 0.00 0.00 0.00 50 1012.3
20260510075027 57 186 1.7 2.6 0.00 0.00 0.00 52 1012.4
20260510074103 55 145 2.6 6.1 0.00 0.00 0.00 54 1012.7
20260510073018 55 180 1.7 5.2 0.00 0.00 0.00 54 1012.9
20260510072034 54 148 1.7 7.0 0.00 0.00 0.00 55 1013.1
20260510071029 52 193 1.7 3.5 0.00 0.00 0.00 59 1013.2
20260510070023 52 188 1.7 6.1 0.00 0.00 0.00 59 1013.4
20260510065019 51 198 2.6 5.2 0.00 0.00 0.00 61 1013.5
20260510064034 51 191 1.7 2.6 0.00 0.00 0.00 61 1013.7
20260510063051 50 194 1.7 3.5 0.00 0.00 0.00 62 1014.0
20260510062046 48 193 1.7 5.2 0.00 0.00 0.00 63 1014.1
20260510061021 48 186 1.7 3.5 0.00 0.00 0.00 65 1014.3
20260510060016 47 187 1.7 5.2 0.00 0.00 0.00 65 1014.4
20260510055032 46 189 1.7 5.2 0.00 0.00 0.00 67 1014.5
20260510054027 46 188 1.7 5.2 0.00 0.00 0.00 67 1014.6
20260510053022 45 191 0.9 2.6 0.00 0.00 0.00 68 1014.7
20260510052018 44 191 1.7 5.2 0.00 0.00 0.00 68 1014.7
20260510051032 43 193 1.7 3.5 0.00 0.00 0.00 69 1014.9
20260510050027 43 189 1.7 3.5 0.00 0.00 0.00 70 1015.0
20260510045023 42 190 0.9 1.7 0.00 0.00 0.00 71 1015.1
20260510044023 41 188 0.0 1.7 0.00 0.00 0.00 73 1015.2
20260510043033 40 195 0.0 1.7 0.00 0.00 0.00 74 1015.3
20260510042028 40 189 0.9 2.6 0.00 0.00 0.00 74 1015.5
20260510041044 40 180 0.0 0.9 0.00 0.00 0.00 73 1015.5
20260510040019 39 179 0.0 1.7 0.00 0.00 0.00 73 1015.8
20260510035034 39 168 0.0 1.7 0.00 0.00 0.00 74 1015.9
20260510034029 37 171 0.0 1.7 0.00 0.00 0.00 76 1016.2
20260510033025 36 0.0 0.0 0.00 0.00 0.00 76 1016.3
20260510032021 37 176 0.0 0.9 0.00 0.00 0.00 74 1016.2
20260510031016 36 180 0.0 0.9 0.00 0.00 0.00 74 1016.4
20260510030212 36 0.0 0.0 0.00 0.00 0.00 75 1016.6
20260510025026 35 0.0 0.0 0.00 0.00 0.00 76 1016.7
20260510024042 35 0.0 0.0 0.00 0.00 0.00 77 1016.9
20260510023017 35 0.0 0.0 0.00 0.00 0.00 78 1017.1
20260510022033 35 0.0 0.0 0.00 0.00 0.00 77 1017.2
20260510021028 36 162 0.0 0.9 0.00 0.00 0.00 75 1017.2
20260510020023 37 0.0 0.0 0.00 0.00 0.00 74 1017.3
20260510015019 38 165 0.0 0.9 0.00 0.00 0.00 71 1017.5
20260510014035 38 0.0 0.0 0.00 0.00 0.00 70 1017.5
20260510013031 38 179 0.0 0.9 0.00 0.00 0.00 70 1017.6
20260510012026 39 181 0.0 0.9 0.00 0.00 0.00 69 1017.8
20260510011042 40 208 0.0 0.9 0.00 0.00 0.00 67 1018.0
20260510010016 40 171 0.0 0.9 0.00 0.00 0.00 66 1018.0
20260510005031 40 164 0.0 0.9 0.00 0.00 0.00 65 1018.0
20260510004025 41 167 0.9 1.7 0.00 0.00 0.00 64 1018.1
20260510003022 42 172 0.9 0.9 0.00 0.00 0.00 63 1018.3
20260510002016 42 201 0.9 1.7 0.00 0.00 0.00 63 1018.3
20260510001032 42 227 0.0 2.6 0.00 0.00 0.00 62 1018.5
20260510000027 42 210 0.9 3.5 0.00 0.00 0.00 63 1018.5
20260509235023 42 188 0.0 1.7 0.00 0.00 0.00 64 1018.7
20260509234038 43 181 0.0 0.9 0.00 0.00 0.00 63 1018.6
20260509233033 44 179 0.9 3.5 0.00 0.00 0.00 61 1018.7
20260509232049 44 189 0.0 1.7 0.00 0.00 0.00 62 1018.8
20260509231025 44 177 0.0 1.7 0.00 0.00 0.00 61 1019.0
20260509230100 45 200 0.9 2.6 0.00 0.00 0.00 59 1019.0
20260509225036 45 180 0.9 2.6 0.00 0.00 0.00 58 1019.0
20260509224030 46 184 1.7 3.5 0.00 0.00 0.00 57 1019.2
20260509223025 46 191 1.7 3.5 0.00 0.00 0.00 57 1019.3
20260509222020 47 197 1.7 6.1 0.00 0.00 0.00 56 1019.3
20260509221035 47 176 1.7 5.2 0.00 0.00 0.00 56 1019.5
20260509220030 47 193 1.7 5.2 0.00 0.00 0.00 55 1019.5
20260509215106 47 184 1.7 5.2 0.00 0.00 0.00 54 1019.5
20260509214021 48 177 0.9 2.6 0.00 0.00 0.00 53 1019.4
20260509213016 49 184 1.7 5.2 0.00 0.00 0.00 52 1019.6
20260509212031 49 188 0.9 5.2 0.00 0.00 0.00 52 1019.7
20260509211026 49 190 1.7 3.5 0.00 0.00 0.00 50 1019.7
20260509210026 50 176 0.9 5.2 0.00 0.00 0.00 49 1019.7
20260509205016 51 193 2.6 7.8 0.00 0.00 0.00 47 1019.5
20260509204031 51 193 2.6 6.1 0.00 0.00 0.00 47 1019.6
20260509203027 51 189 0.9 5.2 0.00 0.00 0.00 46 1019.7
20260509202023 51 203 2.6 5.2 0.00 0.00 0.00 45 1019.7
20260509201017 52 183 1.7 6.1 0.00 0.00 0.00 45 1019.8
20260509200033 52 186 0.9 5.2 0.00 0.00 0.00 44 1019.9
20260509195029 53 198 2.6 6.1 0.00 0.00 0.00 42 1019.9
20260509194024 53 199 1.7 3.5 0.00 0.00 0.00 43 1020.0
20260509193019 53 183 0.9 3.5 0.00 0.00 0.00 43 1019.8
20260509192035 53 192 1.7 5.2 0.00 0.00 0.00 42 1019.7
20260509191030 53 181 0.9 1.7 0.00 0.00 0.00 43 1019.8
20260509190046 53 186 0.0 0.9 0.00 0.00 0.00 43 1019.8
20260509185041 54 189 0.0 0.9 0.00 0.00 0.00 41 1019.9
20260509184015 55 185 0.0 0.9 0.00 0.00 0.00 39 1019.8
20260509183032 55 187 0.9 2.6 0.00 0.00 0.00 37 1019.7
20260509182026 55 183 0.9 2.6 0.00 0.00 0.00 36 1019.8
20260509181021 56 194 0.9 3.5 0.00 0.00 0.00 35 1019.8